Hourly Data Report for August 04, 2021

LYNN LAKE
MANITOBA
Current Station Operator: NAVCAN

56°51'50.000" N
101°04'34.000" W
356.60 m
5061645
71078
YYL

Download Data

Hourly Data (August 2021)
Hourly Data Report for August 4, 2021
TIME
LST
Temp Definition
°C
Dew Point Definition
°C
Rel Hum Definition
%
Precip. Amount Definition
mm

Wind Dir Definition
10's deg

Wind Spd Definition
km/h
Visibility Definition
km
Stn Press Definition
kPa
Hmdx Definition


Wind Chill Definition


Weather Definition


00:00 22.3 15.5 65 0.0 23 11 1.6 96.54 27   Haze
01:00 20.2 15.7 75 0.0 28 13 2.0 96.55 25   Haze
02:00 18.2 13.8 75 0.0 8 18 11.3 96.50     LegendNANA
03:00 17.0 13.6 80 0.0 1 11 12.9 96.52     LegendNANA
04:00 16.1 12.5 79 0.0 2 28 16.1 96.66     LegendNANA
05:00 14.9 11.8 81 0.0 2 28 16.1 96.83     LegendNANA
06:00 13.4 11.5 88 0.0 4 28 16.1 96.94     LegendNANA
07:00 12.8 9.3 79 0.0 2 17 16.1 97.04     LegendNANA
08:00 12.6 8.5 76 0.0 4 24 16.1 97.08     LegendNANA
09:00 13.4 7.8 69 0.0 6 26 16.1 97.15     LegendNANA
10:00 14.5 6.9 60 0.0 3 24 16.1 97.21     LegendNANA
11:00 15.5 6.0 53 0.0 3 11 16.1 97.23     LegendNANA
12:00 16.2 5.2 48 0.0 2 15 16.1 97.26     LegendNANA
13:00 16.5 4.3 44 0.0 3 18 16.1 97.29     LegendNANA
14:00 16.5 4.6 45 0.0 36 13 16.1 97.33     LegendNANA
15:00 16.8 4.2 43 0.0 1 11 16.1 97.35     LegendNANA
16:00 16.8 4.6 44 0.0 4 15 16.1 97.36     LegendNANA
17:00 16.6 4.0 43 0.0 1 15 16.1 97.37     LegendNANA
18:00 15.9 3.7 44 0.0 36 15 16.1 97.39     LegendNANA
19:00 14.6 3.9 48 0.0 36 11 16.1 97.42     LegendNANA
20:00 13.4 4.2 54 0.0 36 5 16.1 97.43     LegendNANA
21:00 11.1 3.9 61 0.0 36 5 16.1 97.47     LegendNANA
22:00 9.6 4.0 68 0.0 1 4 12.9 97.46     LegendNANA
23:00 8.5 4.8 78 0.0 36 5 16.1 97.45     LegendNANA

Notes on Data Quality.

Legend

  • E = Estimated
  • M = Missing
  • NA = Not Available*
  • [empty] = Indicates an unobserved value
Date modified: